Regional Weather Roundup
Issued by NWS

Home | Current Version | Previous Version | Graphics & Text | Print | Product List | Glossary On
Versions: 1 2 3 4 5 6 7 8 9 10 11 12 13 14 15 16 17 18 19 20 21 22 23 24 25 26 27 28 29 30 31 32 33 34 35 36 37 38 39 40 41 42 43 44 45 46 47 48 49 50
000
ASUS43 KDTX 220010
RWRMI
MICHIGAN HOURLY REGIONAL WEATHER ROUNDUP
NATIONAL WEATHER SERVICE DETROIT/PONTIAC MI
800 PM EDT SAT APR 21 2018

NOTE: "FAIR" INDICATES FEW OR NO CLOUDS BELOW 12,000 FEET WITH NO
SIGNIFICANT WEATHER AND/OR OBSTRUCTION TO VISIBILITY.

MIZ047>049-052>055-059>063-066>070-074>076-081>083-220100-
SOUTHEAST LOWER MICHIGAN

CITY           SKY/WX    TMP DP  RH WIND       PRES   REMARKS
ADRIAN         FAIR      50  27  40 SE10      30.39F
6HR MIN TEMP:  50; 6HR MAX TEMP:  55;

ALMA           FAIR      54  31  41 S7        30.37S
6HR MIN TEMP:  54; 6HR MAX TEMP:  58;

ANN ARBOR      FAIR      50  28  42 SE8       30.38F
BAD AXE        FAIR      51  15  23 E3        30.40S
6HR MIN TEMP:  51; 6HR MAX TEMP:  61;

CARO           FAIR      54  28  36 CALM      30.37S
DETROIT CITY   FAIR      49  23  36 SE6       30.41S
6HR MIN TEMP:  49; 6HR MAX TEMP:  54;

DETROIT        CLOUDY    50  27  40 S8        30.41S
6HR MIN TEMP:  50; 6HR MAX TEMP:  57;

FLINT          FAIR      54  26  34 CALM      30.38S
6HR MIN TEMP:  52; 6HR MAX TEMP:  57;

GROSSE ILE     FAIR      42  24  49 S3        30.41S
6HR MIN TEMP:  42; 6HR MAX TEMP:  46;

HILLSDALE      FAIR      50  25  37 E3        30.36F
HOWELL         FAIR      53  22  29 CALM      30.37F
6HR MIN TEMP:  53; 6HR MAX TEMP:  56;


CITY           SKY/WX    TMP DP  RH WIND       PRES   REMARKS
JACKSON        FAIR      53  22  29 S6        30.37F
6HR MIN TEMP:  53; 6HR MAX TEMP:  56;

LAMBERTVILLE   FAIR      49  19  30 E6        30.40F
6HR MIN TEMP:  49; 6HR MAX TEMP:  54;

LANSING        FAIR      54  24  31 CALM      30.37F
6HR MIN TEMP:  54; 6HR MAX TEMP:  59;

LAPEER         FAIR      52  22  30 SE6       30.38S
6HR MIN TEMP:  52; 6HR MAX TEMP:  58;

MASON          FAIR      55  20  25 CALM      30.37S
6HR MIN TEMP:  55; 6HR MAX TEMP:  58;

MONROE         FAIR      45  27  49 SE5       30.40F
6HR MIN TEMP:  45; 6HR MAX TEMP:  50;

MT. CLEMENS    MOCLDY    47  26  45 S3        30.39S
6HR MIN TEMP:  47; 6HR MAX TEMP:  52;

PONTIAC        CLOUDY    53  22  29 SE7       30.37S
6HR MIN TEMP:  53; 6HR MAX TEMP:  56;

PORT HOPE        N/A     47  23  38 SE7       30.37F
6HR MIN TEMP:  40; 6HR MAX TEMP:  48;

PORT HURON     FAIR      50  23  34 S6        30.40S
TRI CITIES     FAIR      56  29  35 SW6       30.37F
6HR MIN TEMP:  56; 6HR MAX TEMP:  60;

MIDLAND        FAIR      55  29  36 S7        30.35S
6HR MIN TEMP:  55; 6HR MAX TEMP:  60;

TROY           FAIR      54  14  20 SE6       30.41S
SAGINAW HB     FAIR      55  27  33 SW3       30.37S
$$
MIZ043>046-050>051-056>058-064>065-071>073-077>080-220100-
SOUTHWEST LOWER MICHIGAN

CITY           SKY/WX    TMP DP  RH WIND       PRES   REMARKS
BATTLE CREEK   FAIR      56  26  31 SE3       30.36F
6HR MIN TEMP:  53; 6HR MAX TEMP:  58;

BENTON HARBOR  CLOUDY    48  20  32 VRB3      30.37S
6HR MIN TEMP:  48; 6HR MAX TEMP:  55;

BIG RAPIDS     FAIR      57   4  12 CALM      30.34S
6HR MIN TEMP:  55; 6HR MAX TEMP:  59;

COLDWATER      FAIR      54  26  33 CALM      30.36S
6HR MIN TEMP:  54; 6HR MAX TEMP:  57;

FREMONT        FAIR      52   9  18 W6        30.37R
6HR MIN TEMP:  52; 6HR MAX TEMP:  58;

HOLLAND        FAIR      49  22  34 W3        30.38S
6HR MIN TEMP:  49; 6HR MAX TEMP:  56;

GRAND RAPIDS   MOCLDY    54  22  28 W5        30.36F
6HR MIN TEMP:  54; 6HR MAX TEMP:  59;

IONIA          FAIR      55  24  31 CALM      30.35S
6HR MIN TEMP:  55; 6HR MAX TEMP:  59;

KALAMAZOO      FAIR      54  28  36 NW7       30.36F
6HR MIN TEMP:  54; 6HR MAX TEMP:  59;

LUDINGTON      FAIR      49  16  26 CALM      30.37F
6HR MIN TEMP:  49; 6HR MAX TEMP:  55;

MARSHALL       FAIR      52  26  36 SE5       30.36S
6HR MIN TEMP:  52; 6HR MAX TEMP:  56;

MOUNT PLEASANT FAIR      58  20  22 CALM      30.35S
6HR MIN TEMP:  56; 6HR MAX TEMP:  61;

MUSKEGON       FAIR      49  14  24 NW3       30.37F
6HR MIN TEMP:  49; 6HR MAX TEMP:  56;

SOUTH HAVEN    FAIR      48  21  34 CALM      30.36F
$$
MIZ016>042-220100-
NORTHERN LOWER MICHIGAN

CITY           SKY/WX    TMP DP  RH WIND       PRES   REMARKS
ALPENA         FAIR      46  27  47 E3        30.38F
6HR MIN TEMP:  46; 6HR MAX TEMP:  54;

BEAVER ISLAND  FAIR      49  13  24 SW5       30.38S
6HR MIN TEMP:  49; 6HR MAX TEMP:  52;

BELLAIRE       FAIR      53  12  20 N3        30.37F
6HR MIN TEMP:  53; 6HR MAX TEMP:  56;

CADILLAC       FAIR      52  17  25 SE3       30.34R
CHARLEVOIX     FAIR      50  21  32 W5        30.41S
6HR MIN TEMP:  49; 6HR MAX TEMP:  54;

FRANKFORT      FAIR      47  22  36 CALM      30.38S
GAYLORD        FAIR      52  11  19 NW5       30.36S
6HR MIN TEMP:  51; 6HR MAX TEMP:  56;

GRAYLING       FAIR      52  16  23 N6        30.35S
6HR MIN TEMP:  51; 6HR MAX TEMP:  57;

HARBOR SPRINGS FAIR      44  19  36 CALM      30.38S
HOUGHTON LAKE  FAIR      54  18  24 SW3       30.35F
6HR MIN TEMP:  53; 6HR MAX TEMP:  57;

MANISTEE       FAIR      48  14  25 W3        30.37F
OSCODA         FAIR      46  15  28 SE5       30.39S
6HR MIN TEMP:  46; 6HR MAX TEMP:  54;

PELLSTON       FAIR      52  13  21 W3        30.37F
6HR MIN TEMP:  51; 6HR MAX TEMP:  55;

ROGERS CITY    FAIR      48  22  36 CALM      30.38S
TRAVERSE CITY  FAIR      47  25  42 N5        30.36F
6HR MIN TEMP:  47; 6HR MAX TEMP:  58;

$$
MIZ007>008-015-220100-
EASTERN UPPER MICHIGAN

CITY           SKY/WX    TMP DP  RH WIND       PRES   REMARKS
KINROSS        FAIR      51  16  24 SW3       30.37S
6HR MIN TEMP:  51; 6HR MAX TEMP:  57;

MACKINAC ISLAN FAIR      46  15  28 W9        30.37S
6HR MIN TEMP:  46; 6HR MAX TEMP:  52;

NEWBERRY       FAIR      46  23  40 S7        30.35S
6HR MIN TEMP:  44; 6HR MAX TEMP:  51;

S. S. MARIE    FAIR      52  20  28 SW8       30.35S
6HR MIN TEMP:  52; 6HR MAX TEMP:  57;

MUNISING         N/A     38  24  57 CALM      30.36S
6HR MIN TEMP:  36; 6HR MAX TEMP:  42;

$$
MIZ004>006-011>014-085-220100-
CENTRAL UPPER MICHIGAN

CITY           SKY/WX    TMP DP  RH WIND       PRES   REMARKS
MANISTIQUE     FAIR      40  30  69 S6        30.36S
6HR MIN TEMP:  40; 6HR MAX TEMP:  45;

ESCANABA       FAIR      49  19  30 S8        30.35R
6HR MIN TEMP:  49; 6HR MAX TEMP:  54;

MENOMINEE      FAIR      51  23  33 SW7       30.35S
6HR MIN TEMP:  51; 6HR MAX TEMP:  57;

SAWYER-GWINN   CLEAR     46  16  29 NE6       30.35S
$$
MIZ001>003-009>011-084-220100-
WESTERN UPPER MICHIGAN

CITY           SKY/WX    TMP DP  RH WIND       PRES   REMARKS
IRON MOUNTAIN  FAIR      59  13  16 NE5       30.29S
6HR MIN TEMP:  59; 6HR MAX TEMP:  63;

HOUGHTON       FAIR      49  14  24 E7        30.34F
6HR MIN TEMP:  48; 6HR MAX TEMP:  56;

COPPER HARBOR    N/A     40  28  62 CALM      30.36F
6HR MIN TEMP:  40; 6HR MAX TEMP:  43;

IRONWOOD       FAIR      53  15  22 NE6       30.34S
6HR MIN TEMP:  53; 6HR MAX TEMP:  57;

$$

ABBREVIATIONS USED IN REMARKS
   TC - TEMPERATURE IN CELSIUS
  WCI - WIND CHILL INDEX
   HX - HEAT INDEX
  VSB - VISIBILITY





USA.gov is the U.S. government's official web portal to all federal, state and local government web resources and services.